User: anonymous   Login
Location: Unspecified
(0.0000°N, 0.0000°E)
Time: 20:48:30
(UTC+00:00)
Language:

SNAP 1 - Orbit

View from above orbital plane
View from above orbital plane
View from above satellite
View from above satellite

Ground track
Ground track

The orbit is defined by the following mean orbital elements,

1 26386U          26150.41230485 +.00000000 +00000-0 +23080-3 0 00005
2 26386  97.7558 137.8753 0009154 332.6942  27.3785 14.74852731    04
Epoch (UTC): 30 May 2026 09:53:43
Eccentricity: 0.0009154
inclination: 97.7558°
perigee height: 639 km
apogee height: 652 km
right ascension of ascending node: 137.8753°
argument of perigee: 332.6942°
revolutions per day: 14.74852731
mean anomaly at epoch: 27.3785°

The dashed part of the orbit path shows where the satellite is in the earth's shadow,  

DLR